Flag for Australia

Past Weather in Perth, Western Australia, Australia — Yesterday and Last 2 Weeks

Now
72 °F

Partly sunny.


Feels Like: 77 °F
Forecast: 64 / 59 °F
Wind: 6 mph from Northeast

Location: Belmont Perth Airport

Current Time: Jul 5, 2020 at 4:28:33 pm

Latest Report: Jul 5, 2020 at 4:00 pm


Visibility: N/A

Pressure: 29.95 "Hg

Humidity: 44%

Dew Point: 48 °F

Location of PerthLocation

Past Weather in Perth — Graph

°F

Perth Temperature Yesterday

Maximum temperature yesterday: 72 °F (at 2:00 pm)
Minimum temperature yesterday: 55 °F (at 12:00 am)
Average temperature yesterday: 62 °F

High & Low Weather Summary for the Past Weeks

 TemperatureHumidityPressure
High73 °F (Jul 5, 1:00 pm)100% (Jun 24, 12:00 am)30.42 "Hg (Jun 24, 12:00 am)
Low39 °F (Jul 2, 4:30 am)28% (Jun 22, 5:30 am)29.68 "Hg (Jun 28, 10:30 pm)
Average59 °F70%30.04 "Hg
* Reported Jun 20 3:00 pm — Jul 5 3:00 pm, Perth. Weather by CustomWeather, © 2020

Note: Actual official high and low records may vary slightly from our data, if they occured in-between our weather recording intervals... More about our weather records

Perth Weather History for the Previous 24 Hours

Scroll right to see more
 ConditionsComfort  
Time TempWeatherWind HumidityBarometerVisibility
3:00 pm
Sun, Jul 5
72 °FSunny.12 mph38%29.95 "Hg10 mi
2:30 pm73 °FSunny.12 mph33%29.95 "Hg10 mi
2:00 pm72 °FSunny.13 mph36%29.98 "Hg10 mi
1:30 pm72 °FSunny.12 mph33%29.98 "Hg10 mi
1:00 pm73 °FSunny.9 mph36%29.98 "Hg10 mi
12:30 pm70 °FSunny.8 mph38%30.01 "Hg10 mi
12:00 pm68 °FSunny.7 mph43%30.01 "Hg10 mi
11:30 am68 °FSunny.9 mph38%30.04 "Hg10 mi
11:00 am70 °FSunny.12 mph35%30.07 "Hg10 mi
10:30 am70 °FSunny.10 mph35%30.07 "Hg10 mi
10:00 am66 °FSunny.10 mph40%30.07 "Hg10 mi
9:30 am64 °FSunny.7 mph46%30.07 "Hg10 mi
8:30 am61 °FSunny.7 mph45%30.07 "Hg10 mi
8:00 am59 °FSunny.8 mph48%30.07 "Hg10 mi
7:30 am57 °FSunny.7 mph51%30.09 "Hg10 mi
7:00 am55 °FClear.8 mph55%30.09 "Hg10 mi
6:30 am57 °FClear.6 mph51%30.07 "Hg10 mi
6:00 am57 °FClear.8 mph51%30.07 "Hg10 mi
5:30 am57 °FClear.10 mph51%30.07 "Hg10 mi
5:00 am57 °FClear.10 mph51%30.09 "Hg10 mi
4:30 am57 °FClear.10 mph51%30.09 "Hg10 mi
4:00 am55 °FClear.7 mph55%30.09 "Hg10 mi
3:30 am57 °FClear.12 mph51%30.09 "Hg10 mi
3:00 am57 °FClear.5 mph51%30.12 "Hg10 mi
2:30 am57 °FClear.8 mph51%30.12 "Hg10 mi
2:00 am57 °FClear.7 mph51%30.12 "Hg10 mi
1:30 am57 °FClear.8 mph55%30.12 "Hg10 mi
1:00 am59 °FClear.15 mph51%30.12 "Hg10 mi
12:30 am57 °FClear.9 mph55%30.15 "Hg10 mi
12:00 am57 °FClear.10 mph59%30.15 "Hg10 mi
11:30 pm
Sat, Jul 4
59 °FClear.13 mph55%30.15 "Hg10 mi
11:00 pm59 °FClear.10 mph55%30.15 "Hg10 mi
10:30 pm57 °FClear.7 mph59%30.18 "Hg10 mi
10:00 pm59 °FClear.10 mph59%30.18 "Hg10 mi
9:30 pm59 °FClear.12 mph59%30.18 "Hg10 mi
9:00 pm59 °FClear.8 mph59%30.18 "Hg10 mi
8:30 pm59 °FClear.10 mph63%30.18 "Hg10 mi
8:00 pm61 °FClear.8 mph59%30.18 "Hg10 mi
7:30 pm61 °FClear.13 mph59%30.18 "Hg10 mi
7:00 pm61 °FClear.10 mph59%30.18 "Hg10 mi
6:30 pm63 °FClear.8 mph56%30.18 "Hg10 mi
6:00 pm63 °FClear.7 mph56%30.18 "Hg10 mi
5:30 pm64 °FClear.9 mph52%30.15 "Hg10 mi
5:00 pm68 °FSunny.9 mph46%30.15 "Hg10 mi
4:30 pm70 °FSunny.10 mph43%30.15 "Hg10 mi
4:00 pm72 °FSunny.7 mph41%30.18 "Hg10 mi
Weather by CustomWeather, © 2020

See weather overview